Location: Appeville
(49.3218°N, 1.3427°W)
Time: 06:22:49
(UTC+00:00)

Cosmos 2227 Rocket - Pass Details

Date: 08 December 2019
Orbit: 840 x 844 km, 71.0° (Epoch: 25 January)

Event Time Altitude Azimuth Distance (km) Brightness Sun altitude
Exits shadow 04:13:45 32° 31° (NNE) 1,416 3.5 -33.7°
Drops below altitude 10° 04:16:41 10° 30° (NNE) 2,474 4.9 -33.2°
Sets 04:19:08 0° 30° (NNE) 3,413 5.7 -32.8°
